Location: Unspecified
(42.9300°N, 71.1866°W)
Time: 14:22:37
(UTC-04:00)

Cosmos 2058 - Visible Passes

Search period start: 28 July 2016 00:00
Search period end: 07 August 2016 00:00
Orbit: 565 x 585 km, 82.5° (Epoch: 28 July)

Date Brightness Start Highest point End Pass type
(mag) Time Alt. Az. Time Alt. Az. Time Alt. Az.
28 Jul 5.4 04:13:35 10° NNE 04:17:06 25° ENE 04:20:36 10° SE visible
29 Jul 4.8 04:16:58 10° N 04:20:48 33° ENE 04:24:38 10° SE visible
30 Jul 4.2 04:20:27 10° N 04:24:30 43° ENE 04:28:31 10° SSE visible
31 Jul 3.6 04:23:58 10° N 04:28:10 59° E 04:32:19 10° SSE visible
01 Aug 3.1 04:27:33 10° N 04:31:49 80° E 04:36:01 10° S visible
02 Aug 2.9 04:31:12 10° NNW 04:35:25 76° W 04:39:37 10° S visible
03 Aug 5.9 02:59:41 10° NE 03:01:42 13° ENE 03:03:41 10° E visible
03 Aug 3.1 04:34:53 10° NNW 04:39:02 55° W 04:43:08 10° S visible
04 Aug 5.7 03:02:40 10° NNE 03:05:27 17° ENE 03:08:13 10° ESE visible
04 Aug 3.4 04:38:38 10° NNW 04:42:36 41° W 04:46:33 10° SSW visible
05 Aug 5.3 03:05:52 10° NNE 03:09:11 22° ENE 03:12:28 10° SE visible
05 Aug 3.8 04:42:27 10° NNW 04:46:10 30° W 04:49:51 10° SSW visible
06 Aug 4.8 03:09:13 10° NNE 03:12:54 28° ENE 03:16:33 10° SE visible
06 Aug 4.2 04:46:22 10° NW 04:49:42 23° W 04:53:02 10° SW visible
